AirNav   Everest Fuels
 
 1276 users online  

H34 Huntsville Municipal Airport
Huntsville, Arkansas, USA

GOING TO HUNTSVILLE?


FAA INFORMATION EFFECTIVE 25 MARCH 2021

Location

FAA Identifier: H34
Lat/Long: 36-04-41.0000N 093-45-18.1000W
36-04.683333N 093-45.301667W
36.0780556,-93.7550278
(estimated)
Elevation: 1747.9 ft. / 532.8 m (surveyed)
Variation: 01E (2015)
From city: 2 miles SW of HUNTSVILLE, AR
Time zone: UTC -5 (UTC -6 during Standard Time)
Zip code: 72740

Airport Operations

Airport use: Open to the public
Activation date: 07/1986
Control tower: no
ARTCC: MEMPHIS CENTER
FSS: JONESBORO FLIGHT SERVICE STATION
NOTAMs facility: JBR (NOTAM-D service available)
Attendance: UNATNDD
Wind indicator: lighted
Segmented circle: no
Lights: ACTVT MIRL RY 12/30 - CTAF.
Beacon: white-green (lighted land airport)
Operates sunset to sunrise.

Airport Communications

CTAF/UNICOM: 122.8
RAZORBACK APPROACH: 126.6 [0530-2300]
RAZORBACK DEPARTURE: 126.6 [0530-2300]
WX AWOS-3 at ASG (19 nm W): 124.675 (479-750-2967)
  • APCH/DEP SVC PRVDD BY MEMPHIS ARTCC ON FREQS 126.1/269.0 (FAYETTEVILLE RCAG) WHEN RAZORBACK APCH CTL CLSD.

Nearby radio navigation aids

VOR radial/distance  VOR name  Freq  Var
RZCr116/20.4RAZORBACK VORTAC116.4004E
HROr237/29.9HARRISON VOR/DME112.5004E

 
NDB name  Hdg/Dist  Freq  Var  ID
SILOAM SPRINGS097/36.228404ESLG ... .-.. --.

Airport Services

Fuel available: 100LL
SELF SERVICE FUEL AVBL 24 HRS WITH CREDIT CARD.
Parking: tiedowns

Runway Information

Runway 12/30

Dimensions: 3601 x 60 ft. / 1098 x 18 m
Surface: asphalt, in fair condition
Weight bearing capacity: 
Single wheel: 12.5
Runway edge lights: medium intensity
Runway edge markings: RWY 12/30 MARKINGS FADED.
RUNWAY 12  RUNWAY 30
Latitude: 36-04.851988N36-04.514875N
Longitude: 093-45.602728W093-45.001023W
Elevation: 1743.6 ft.1744.9 ft.
Traffic pattern: leftleft
Runway heading: 124 magnetic, 125 true304 magnetic, 305 true
Markings: nonprecision, in poor conditionnonprecision, in poor condition
Touchdown point: yes, no lightsyes, no lights

Runway 3/21

Dimensions: 1250 x 60 ft. / 381 x 18 m
Surface: turf, in good condition
STEEP DROP OFF AT RY ENDS.
RUNWAY 3  RUNWAY 21
Traffic pattern: leftleft
Obstructions: 8 ft. trees, 250 ft. from runway, 31:1 slope to clearnone

Airport Ownership and Management from official FAA records

Ownership: Publicly-owned
Owner: CITY OF HUNTSVILLE
PO BOX 844
HUNTSVILLE, AR 72740
Phone 479-738-6607
Manager: CHARLES COGER
PO BOX 844
HUNTSVILLE, AR 72740
Phone 479-738-7287

Airport Operational Statistics

Aircraft based on the field: 26
Single engine airplanes: 23
Multi engine airplanes: 1
Ultralights: 2
    
Aircraft operations: avg 96/week *
60% local general aviation
36% transient general aviation
4% military
* for 12-month period ending 30 April 2018

Additional Remarks

ULTRALIGHT ACTIVITY ON & INVOF ARPT.
FOR CD CTC RAZORBACK APCH 479-649-2416, WHEN APCH CLSD CTC MEMPHIS ARTCC AT 901-368-8453.

Instrument Procedures

NOTE: All procedures below are presented as PDF files. If you need a reader for these files, you should download the free Adobe Reader.

NOT FOR NAVIGATION. Please procure official charts for flight.
FAA instrument procedures published for use from 25 March 2021 at 0901Z to 22 April 2021 at 0900z.

 
IAPs - Instrument Approach Procedures
RNAV (GPS) RWY 12   download (224KB)
RNAV (GPS) RWY 30   download (222KB)
NOTE: Special Take-Off Minimums/Departure Procedures apply   download (132KB)

Other nearby airports with instrument procedures:

KASG - Springdale Municipal Airport (19 nm W)
4M1 - Carroll County Airport (19 nm N)
KFYV - Drake Field Airport (21 nm W)
KROG - Rogers Executive Airport - Carter Field (25 nm NW)
KVBT - Bentonville Municipal Airport/Louise M Thaden Field (28 nm NW)
 
Loc | Ops | Rwys | IFR | FBO | Links
Com | Nav | Svcs | Stats | Notes

Branson Jet Center
AirBoss

 
Area around H34 (Huntsville Municipal Airport)
 
Road maps at: MapQuest Bing Google
 
Aerial photo
WARNING: Photo may not be current or correct
Aerial photo of H34 (Huntsville Municipal Airport)
Photo courtesy of the Arkansas Department of Aeronautics
Taken in the Spring of 2007

Do you have a better or more recent aerial photo of Huntsville Municipal Airport that you would like to share? If so, please send us your photo.

 
Sectional chart

 
Airport distance calculator
Flying to Huntsville Municipal Airport? Find the distance to fly.

From to H34

Sunrise and sunset
Times for 17-Apr-2021
 Local
(UTC-5)
 Zulu
(UTC)
Morning civil twilight06:1411:14
Sunrise06:4011:40
Sunset19:4900:49
Evening civil twilight20:1601:16

Current date and time
Zulu (UTC)  17-Apr-2021 16:21:11
Local (UTC-5)  17-Apr-2021 11:21:11
 
METAR
KASG 
18nm W 
171548Z 33008G14KT 10SM SCT008 OVC013 07/07 A3007
KFYV 
20nm W 
171553Z 35007KT 10SM BKN014 OVC023 08/06 A3006 RMK AO2 SLP181 T00830061
KROG 
24nm NW 
171558Z 32006KT 10SM BKN009 OVC018 08/06 A3007 RMK AO2 CIG 008V013 SLP184 T00780061
KVBT 
28nm NW 
171556Z AUTO 34007KT 10SM BKN009 BKN012 OVC045 08/07 A3009 RMK AO2 CIG 007V011 SLP195 T00780067 TSNO
KXNA 
29nm NW 
171553Z 35008KT 10SM SCT009 BKN013 OVC043 09/06 A3007 RMK AO2 SLP183 T00890061
KHRO 
31nm E 
171553Z AUTO 33006KT 5SM BR BKN008 BKN014 OVC025 08/06 A3003 RMK AO2 CIG 005V011 SLP171 T00780061 PWINO
KSLG 
35nm W 
171556Z AUTO 34011KT 10SM SCT013 BKN022 OVC038 08/06 A3009 RMK AO2 SLP190 T00830061 TSNO
TAF
KFYV 
20nm W 
171120Z 1712/1812 VRB04KT 3SM BR OVC008 TEMPO 1712/1714 5SM -SHRA BR SCT008 BKN015 FM171600 34009KT P6SM OVC015 FM172000 33010KT P6SM BKN035 FM180200 VRB03KT P6SM SCT015 BKN035
KROG 
24nm NW 
171120Z 1712/1812 35004KT 3SM BR OVC005 TEMPO 1712/1714 5SM -SHRA BR SCT005 BKN015 FM171600 34010KT P6SM BKN012 FM172100 32010KT P6SM BKN035 FM180200 VRB03KT P6SM SCT015 BKN035
NOTAMs
Click for the latest NOTAMs
NOTAMs are issued by the DoD/FAA and will open in a separate window not controlled by AirNav.

 

 
 

FBO, Fuel Providers, and Aircraft Ground Support

  
 Business Name 
 
 Contact 
 
 Services / Description 
 
Fuel Prices
 
Comments
  
Huntsville Municipal Airport 479-738-1122
no information available

If you are affiliated with Huntsville Municipal Airport and would like to show here your services, contact info, web link, logo, and more, click here
100LL
SS $3.99 
 Updated 15-Apr-2021
 
   write
SS=Self service
Update Fuel Prices
 

Would you like to see your business listed on this page?

 If your business provides an interesting product or service to pilots, flight crews, aircraft, or users of the Huntsville Municipal Airport, you should consider listing it here.  To start the listing process, click on the button below
 
Add a business
 

Other Pages about Huntsville Municipal Airport

Update a link
 
Copyright © AirNav, LLC. All rights reserved. Privacy Policy  Contact